Fredericksburg, TX

9:08 PM CST on November 20, 2017 (GMT -0600)
Fredericksburg

Weather History for KT82 - August, 2013

Change the Weather History Date:

Tuesday, August 20, 2013

  Actual Average (KSAT) Record (KSAT)
Temperature  
Mean Temperature 78 °F -  
Max Temperature 93 °F 94 °F 107 °F (1909)
Min Temperature 63 °F 74 °F 65 °F (1940)
Cooling Degree Days 12    
Growing Degree Days 28 (Base 50)    
Moisture  
Dew Point 58 °F    
Average Humidity 51    
Maximum Humidity 81    
Minimum Humidity 23    
Precipitation  
Precipitation 0.00 in - - ()
Sea Level Pressure  
Sea Level Pressure 30.04 in    
Wind  
Wind Speed 3 mph (SE)    
Max Wind Speed 13 mph    
Max Gust Speed 18 mph    
Visibility 10 miles    
Events      
Averages and records for this station are not official NWS values.
T = Trace of Precipitation, MM = Missing Value Source: NWS Daily Summary

Daily Weather History Graph

Daily Weather History Graph

Search for Another Location

Airport or City:

Trip Planner

Search our weather history database for the weather conditions in past years. The results will help you decide how hot, cold, wet, or windy it might be!

Date:

Astronomy

Aug. 20, 2013 Rise Set
Actual Time 7:05 AM CDT 8:11 PM CDT
Civil Twilight 6:40 AM CDT 8:36 PM CDT
Nautical Twilight 6:11 AM CDT 9:06 PM CDT
Astronomical Twilight 5:40 AM CDT 9:36 PM CDT
Moon 7:48 PM CDT (8/20) 6:35 AM CDT (8/20)
Length of Visible Light 13h 55m
Length of Day
13h 05m
Full, 100% of the Moon is Illuminated
Aug 20
Full
Aug 20
Full
Aug 28
Last Quarter
Sep 5
New
Sep 12
First Quarter

Hourly Weather History & Observations

Time (CDT) Temp. Heat Index Dew Point Humidity Pressure Visibility Wind Dir Wind Speed Gust Speed Precip Events Conditions
12:15 AM 72.7 °F - 58.1 °F 60% 30.02 in 10.0 mi Calm Calm - N/A   Clear
12:35 AM 72.1 °F - 58.1 °F 61% 30.02 in 10.0 mi Calm Calm - N/A   Clear
12:55 AM 70.3 °F - 57.2 °F 63% 30.02 in 10.0 mi SE 4.6 mph - N/A   Clear
1:15 AM 75.2 °F - 56.7 °F 52% 30.03 in 10.0 mi SSE 3.5 mph - N/A   Clear
1:35 AM 76.1 °F - 58.3 °F 54% 30.04 in 10.0 mi South 4.6 mph - N/A   Clear
1:55 AM 75.4 °F - 59.2 °F 57% 30.04 in 10.0 mi Calm Calm - N/A   Clear
2:15 AM 74.7 °F - 59.9 °F 60% 30.04 in 10.0 mi Calm Calm - N/A   Clear
2:35 AM 73.6 °F - 60.4 °F 63% 30.04 in 10.0 mi Calm Calm - N/A   Clear
2:55 AM 73.9 °F - 61.3 °F 65% 30.04 in 10.0 mi Calm Calm - N/A   Clear
3:15 AM 73.8 °F - 61.2 °F 65% 30.04 in 10.0 mi Calm Calm - N/A   Clear
3:35 AM 73.8 °F - 60.4 °F 63% 30.04 in 10.0 mi South 6.9 mph - N/A   Clear
3:55 AM 73.4 °F - 59.9 °F 63% 30.04 in 10.0 mi South 3.5 mph - N/A   Clear
4:15 AM 71.4 °F - 60.4 °F 68% 30.04 in 10.0 mi Calm Calm - N/A   Clear
4:35 AM 70.3 °F - 60.4 °F 71% 30.04 in 10.0 mi Calm Calm - N/A   Clear
4:55 AM 70.5 °F - 60.3 °F 70% 30.04 in 10.0 mi Calm Calm - N/A   Clear
5:15 AM 68.7 °F - 59.9 °F 73% 30.04 in 10.0 mi Calm Calm - N/A   Clear
5:35 AM 66.7 °F - 59.2 °F 77% 30.04 in 10.0 mi Calm Calm - N/A   Clear
5:55 AM 68.0 °F - 59.0 °F 73% 30.04 in 10.0 mi Calm Calm - N/A   Clear
6:15 AM 66.4 °F - 58.8 °F 77% 30.04 in 10.0 mi Calm Calm - N/A   Clear
6:35 AM 66.4 °F - 59.4 °F 78% 30.04 in 10.0 mi Calm Calm - N/A   Clear
6:55 AM 65.1 °F - 58.3 °F 78% 30.04 in 10.0 mi NW 3.5 mph - N/A   Clear
7:15 AM 63.9 °F - 57.9 °F 81% 30.05 in 10.0 mi Calm Calm - N/A   Clear
7:35 AM 64.6 °F - 58.3 °F 80% 30.06 in 10.0 mi Calm Calm - N/A   Clear
7:55 AM 66.9 °F - 59.0 °F 76% 30.06 in 10.0 mi NNW 3.5 mph - N/A   Clear
8:15 AM 69.3 °F - 59.9 °F 72% 30.06 in 10.0 mi Calm Calm - N/A   Clear
8:35 AM 70.9 °F - 60.8 °F 70% 30.06 in 10.0 mi Calm Calm - N/A   Clear
8:55 AM 73.6 °F - 62.2 °F 68% 30.06 in 10.0 mi Calm Calm - N/A   Clear
9:15 AM 74.3 °F - 63.0 °F 68% 30.07 in 10.0 mi Calm Calm - N/A   Clear
9:35 AM 76.8 °F - 62.6 °F 61% 30.07 in 10.0 mi Calm Calm - N/A   Clear
9:55 AM 79.3 °F - 60.6 °F 53% 30.07 in 10.0 mi Calm Calm - N/A   Clear
10:15 AM 81.5 °F 81.8 °F 59.7 °F 47% 30.07 in 10.0 mi SE 3.5 mph - N/A   Clear
10:35 AM 83.8 °F 83.1 °F 57.4 °F 40% 30.07 in 10.0 mi East 5.8 mph - N/A   Clear
10:55 AM 86.2 °F 84.5 °F 54.5 °F 34% 30.08 in 10.0 mi SE 5.8 mph - N/A   Clear
11:15 AM 86.7 °F 84.9 °F 54.5 °F 33% 30.07 in 10.0 mi Calm Calm - N/A   Clear
11:35 AM 87.6 °F - 52.9 °F 30% 30.07 in 10.0 mi East 6.9 mph - N/A   Clear
11:55 AM 87.8 °F - 52.3 °F 30% 30.07 in 10.0 mi ENE 3.5 mph - N/A   Scattered Clouds
12:15 PM 88.5 °F - 52.2 °F 29% 30.06 in 10.0 mi SE 4.6 mph - N/A   Scattered Clouds
12:35 PM 89.6 °F - 51.3 °F 27% 30.06 in 10.0 mi East 4.6 mph - N/A   Scattered Clouds
12:55 PM 90.0 °F - 50.0 °F 25% 30.06 in 10.0 mi SE 6.9 mph 16.1 mph N/A   Scattered Clouds
1:15 PM 90.0 °F - 48.7 °F 24% 30.06 in 10.0 mi ESE 8.1 mph 16.1 mph N/A   Clear
1:35 PM 90.9 °F - 47.8 °F 23% 30.05 in 10.0 mi NE 3.5 mph 16.1 mph N/A   Clear
1:55 PM 92.1 °F - 48.7 °F 23% 30.04 in 10.0 mi East 12.7 mph 17.3 mph N/A   Clear
2:15 PM 91.2 °F - 48.6 °F 23% 30.04 in 10.0 mi ESE 11.5 mph - N/A   Clear
2:35 PM 91.8 °F - 48.6 °F 23% 30.04 in 10.0 mi ENE 9.2 mph 18.4 mph N/A   Clear
2:55 PM 91.9 °F - 50.7 °F 24% 30.04 in 10.0 mi East 12.7 mph 18.4 mph N/A   Scattered Clouds
3:15 PM 92.8 °F - 50.7 °F 24% 30.03 in 10.0 mi SSE 9.2 mph 16.1 mph N/A   Scattered Clouds
3:35 PM 91.6 °F - 51.1 °F 25% 30.03 in 10.0 mi East 9.2 mph - N/A   Scattered Clouds
3:55 PM 92.1 °F - 49.3 °F 23% 30.02 in 10.0 mi East 4.6 mph 18.4 mph N/A   Scattered Clouds
4:15 PM 91.6 °F - 50.9 °F 25% 30.01 in 10.0 mi SSE 6.9 mph - N/A   Scattered Clouds
4:35 PM 92.1 °F - 49.3 °F 23% 30.00 in 10.0 mi ESE 5.8 mph - N/A   Scattered Clouds
4:55 PM 89.4 °F - 51.8 °F 28% 30.00 in 10.0 mi ENE 9.2 mph 17.3 mph N/A   Scattered Clouds
5:15 PM 91.4 °F - 52.9 °F 27% 30.00 in 10.0 mi East 8.1 mph - N/A   Scattered Clouds
5:35 PM 89.6 °F - 52.7 °F 28% 29.99 in 10.0 mi East 8.1 mph - N/A   Scattered Clouds
5:55 PM 89.6 °F - 52.0 °F 28% 29.99 in 10.0 mi SE 5.8 mph - N/A   Scattered Clouds
6:15 PM 90.3 °F - 51.4 °F 26% 29.99 in 10.0 mi ESE 6.9 mph - N/A   Clear
6:35 PM 89.6 °F - 51.1 °F 27% 29.98 in 10.0 mi ESE 5.8 mph - N/A   Clear
6:55 PM 89.1 °F - 50.5 °F 27% 29.98 in 10.0 mi SE 8.1 mph - N/A   Clear
7:15 PM 85.8 °F 87.1 °F 64.0 °F 48% 29.99 in 10.0 mi SSE 8.1 mph 16.1 mph N/A   Clear
7:35 PM 84.4 °F 85.9 °F 64.6 °F 51% 30.00 in 10.0 mi SE 10.4 mph 16.1 mph N/A   Clear
7:55 PM 83.3 °F 84.8 °F 64.8 °F 53% 30.00 in 10.0 mi SSE 9.2 mph - N/A   Clear
8:15 PM 82.6 °F 83.9 °F 64.0 °F 53% 30.00 in 10.0 mi SE 9.2 mph - N/A   Clear
8:35 PM 82.0 °F 83.4 °F 63.9 °F 54% 30.01 in 10.0 mi SSE 6.9 mph - N/A   Clear
8:55 PM 81.5 °F 82.9 °F 63.9 °F 55% 30.01 in 10.0 mi Calm Calm - N/A   Clear
9:15 PM 81.0 °F 82.6 °F 64.4 °F 57% 30.02 in 10.0 mi SE 3.5 mph - N/A   Clear
9:35 PM 80.2 °F 81.9 °F 64.4 °F 58% 30.03 in 10.0 mi SSE 3.5 mph - N/A   Clear
9:55 PM 79.7 °F - 65.3 °F 61% 30.04 in 10.0 mi SSE 4.6 mph - N/A   Clear
10:15 PM 79.0 °F - 65.3 °F 63% 30.04 in 10.0 mi Calm Calm - N/A   Clear
10:35 PM 78.4 °F - 65.3 °F 64% 30.05 in 10.0 mi SSE 3.5 mph - N/A   Clear
10:55 PM 77.9 °F - 65.3 °F 65% 30.06 in 10.0 mi SE 4.6 mph - N/A   Clear
11:15 PM 77.4 °F - 65.5 °F 67% 30.06 in 10.0 mi SSE 5.8 mph - N/A   Clear
11:35 PM 76.5 °F - 66.0 °F 70% 30.06 in 10.0 mi SE 4.6 mph - N/A   Clear
11:55 PM 75.6 °F - 66.2 °F 73% 30.07 in 10.0 mi Calm Calm - N/A   Clear